Regional Weather Roundup
Issued by NWS

Home | Current Version | Previous Version | Graphics & Text | Print | Product List | Glossary Off
Versions: 1 2 3 4 5 6 7 8 9 10 11 12 13 14 15 16 17 18 19 20 21 22 23 24 25 26 27 28 29 30 31 32 33 34 35 36 37 38 39 40 41 42 43 44 45 46 47 48 49 50

000
ASUS43 KMKX 160259
RWRWI

WISCONSIN REGIONAL WEATHER ROUNDUP
NATIONAL WEATHER SERVICE MILWAUKEE/SULLIVAN WI
900 PM CST FRI DEC 15 2017

NOTE: "FAIR" INDICATES FEW OR NO CLOUDS BELOW 12,000 FEET WITH NO
SIGNIFICANT WEATHER AND/OR OBSTRUCTIONS TO VISIBILITY.

WIZ001-002-006>008-014>016-023>028-160400-
NORTHWEST WISCONSIN

CITY           SKY/WX    TMP DP  RH WIND       PRES   REMARKS
SUPERIOR ARPT  CLOUDY    16   7  69 CALM      29.79F
ASHLAND        CLOUDY    10   5  80 CALM      29.80F
HAYWARD        CLOUDY    16   9  74 CALM      29.75F
SIREN          LGT SNOW  19  14  82 CALM      29.75F
CUMBERLAND     LGT SNOW  18  12  79 CALM      29.74F
RICE LAKE      LGT SNOW  18  14  86 CALM      29.77F
CHETEK           N/A     17  14  86 E3        29.76F
LADYSMITH      CLOUDY    16  10  74 E3        29.77F
EAU CLAIRE     LGT SNOW  21  18  88 SE3       29.77F FOG
MENOMONIE      FLURRIES  23  20  89 E5        29.78S WCI  17
NEW RICHMOND   LGT SNOW  23  19  86 SE6       29.74F WCI  15
OSCEOLA        LGT SNOW  22  20  91 SE5       29.77F WCI  16
$$

WIZ003>005-009-010-017-018-160400-
NORTH CENTRAL WISCONSIN

CITY           SKY/WX    TMP DP  RH WIND       PRES   REMARKS
MANITOWISH WTR CLOUDY     3   1  92 CALM      29.74F
ARBOR VITAE    CLOUDY     5   2  86 CALM      29.74S
WOODRUFF       CLOUDY     5   2  86 CALM      29.74S
RHINELANDER    CLOUDY     6   3  87 CALM      29.75F
EAGLE RIVER    CLOUDY     4   0  81 CALM      29.75S
LAND O LAKES   CLOUDY     5   2  87 CALM      29.76S
PHILLIPS       CLOUDY    10   7  89 CALM      29.75F
TOMAHAWK       CLOUDY     7   4  87 CALM      29.77S
MEDFORD        FLURRIES  14   9  80 CALM      29.75F
MERRILL        CLOUDY    10   7  89 CALM      29.79S
$$

WIZ029-030-035-036-043>047-160400-
CENTRAL WISCONSIN

CITY           SKY/WX    TMP DP  RH WIND       PRES   REMARKS
WAUSAU         CLOUDY    13   9  84 E3        29.77F
MOSINEE        CLOUDY    16  10  79 CALM      29.79
MARSHFIELD     CLOUDY    17  11  77 E5        29.76F WCI  10
STEVENS POINT  CLOUDY    15  10  79 CALM      29.81S
WAUPACA        CLOUDY    21  14  72 CALM      29.84F
WAUTOMA        FLURRIES  22  16  78 E6          N/A  WCI  14
WISC RAPIDS    CLOUDY    20  12  71 E5        29.81F WCI  13
CAMP DOUGLAS   NOT AVBL
$$

WIZ011>013-019>022-031-037>040-048>050-160400-
NORTHEAST WISCONSIN

CITY           SKY/WX    TMP DP  RH WIND       PRES   REMARKS
ANTIGO         CLOUDY     7   4  89 CALM      29.77F
SHAWANO        CLOUDY    14   9  80 CALM      29.83F
OCONTO         CLOUDY     7   3  84 CALM      29.84F
STURGEON BAY   CLOUDY    18  10  71 NW9       29.84F WCI   7
GREEN BAY      CLOUDY    13   7  77 S5        29.85F WCI   5
MANITOWOC      CLOUDY    15  10  80 CALM      29.86F
APPLETON       CLOUDY    19   9  63 CALM      29.82F
CLINTONVILLE   NOT AVBL
OSHKOSH        LGT SNOW  23  15  71 CALM      29.83F
$$

WIZ032>034-041-042-053>061-160400-
SOUTHWEST WISCONSIN

CITY           SKY/WX    TMP DP  RH WIND       PRES   REMARKS
LA CROSSE      CLOUDY    31  28  89 SE6       29.79F WCI  25
SPARTA         LGT SNOW  28  27  96 CALM      29.80F
VIROQUA        PTCLDY    29  29 100 CALM      29.78F
BOSCOBEL       CLOUDY    30  27  88 CALM      29.81F
PRAIRIE DU CHI CLOUDY    33  26  74 CALM      29.80F
PLATTEVILLE    CLOUDY    32  28  84 S7        29.82S WCI  26
$$

WIZ056-057-062-063-064-067-068-160400-
SOUTH CENTRAL WISCONSIN

CITY           SKY/WX    TMP DP  RH WIND       PRES   REMARKS
REEDSBURG      LGT RAIN  29  27  92 S3        29.81S
BARABOO/DELLS  LGT SNOW  29  26  87 S3        29.80F
LONE ROCK      NOT AVBL
MINERAL POINT  PTCLDY    34  30  86 S7        29.80F WCI  28
MADISON        FLURRIES  31  26  82 S6        29.83F WCI  25
MIDDLETON      CLOUDY    32  28  83 S3        29.83F
WATERTOWN      FLURRIES  30  29  96 SW5       29.84S WCI  25
MONROE         CLOUDY    32  27  80 S12       29.82F WCI  23
JANESVILLE     CLOUDY    34  27  75 S5        29.84F WCI  30
$$

WIZ051-052-058>065-066-070>072-160400-
SOUTHEAST WISCONSIN

CITY           SKY/WX    TMP DP  RH WIND       PRES   REMARKS
MILWAUKEE      FLURRIES  32  27  81 SW8       29.86F WCI  25
WAUKESHA       CLOUDY    27  23  86 SW7       29.86S WCI  19
MILWAUKEE/TIMM LGT SNOW  30  25  80 SW6       29.86F WCI  24
RACINE         FLURRIES  31  26  82 SW6       29.88F WCI  25
BURLINGTON     MOCLDY    31  28  88 SW6       29.86S WCI  25
KENOSHA        CLOUDY    32  25  75 SW6       29.87F WCI  26
FOND DU LAC    FLURRIES  24  17  74 CALM      29.83F
SHEBOYGAN      CLOUDY    21  15  78 CALM      29.85S
WEST BEND      LGT SNOW  23  19  86 CALM      29.84F
JUNEAU         FLURRIES  28  26  91 S6        29.84S WCI  22
$$

LSZ147-162-160400-
LAKE SUPERIOR

STATION/POSITION TIME  TEMP    WIND        PRES    WAVE
                       AIR SEA DIR/SP/G            HT/PER
                 (UTC) (F)     (DEG/KT/KT) (MB)    (FT/S)
DEVILS ISLAND    0200   18     200/  3/  5 1010.6F
SAXON HARBOR     0240    9                 1009.1F
$$

LMZ867-665-643>646-160400-
LAKE MICHIGAN

STATION/POSITION TIME  TEMP    WIND        PRES    WAVE
                       AIR SEA DIR/SP/G            HT/PER
                 (UTC) (F)     (DEG/KT/KT) (MB)    (FT/S)
NORTHPORT PIER   0240   20     300/  8/ 11 1010.2F
KEWAUNEE LAKESHO 0230   13     290/  3/  3 1010.4S
SHEBOYGAN LAKESH 0200   23     330/  3/  4 1012.2R
PORT WASHINGTON  0240   26     270/  3/  3 1012.2F
MILWAUKEE LAKESH 0240   31     230/  7/  8   N/A
KENOSHA   LAKESH 0200   32     220/  7/  9 1012.2
$$

TC  - TEMPERATURE IN CELSIUS
VSB - VISIBILITY IN STATUTE MILES
WCI - WIND CHILL INDEX
HX  - HEAT INDEX





USA.gov is the U.S. government's official web portal to all federal, state and local government web resources and services.